Theta_e
312 313 313 313 313 313 313 313 313 314 314 314 314 314 314 314 314 314 315 315 315 314 315 314 314 314 314 313 313 313 313 309 306 303 302 306 310 315 319 317 321 320 321 307 304 305 303 304 304 304 306 306 304 305 306 307 302 301 298 296 293 294 293 297 296 297 298 298 300 300 298 300 304 323 326 329 326 325 326 326 329 332 332 336 337 338 337 336
312 313 313 313 313 313 313 313 313 313 314 314 314 314 314 314 314 314 315 315 315 315 314 314 315 314 313 313 313 313 311 307 304 303 303 313 318 321 324 323 326 322 319 305 303 302 303 302 303 304 305 304 302 303 304 304 302 300 296 295 294 293 297 299 299 299 298 299 299 299 298 298 300 323 322 320 320 322 321 324 326 325 331 334 336 336 334 335
312 312 312 312 312 312 312 312 313 313 313 314 314 314 314 314 314 315 314 314 315 314 314 314 314 313 313 313 314 312 309 305 303 304 313 322 321 322 322 329 326 324 309 305 304 305 304 304 304 304 302 303 302 301 302 300 301 299 298 294 295 297 298 297 299 299 299 299 300 300 298 298 299 308 314 317 320 321 321 321 323 325 326 329 331 333 333 333
312 312 312 312 312 312 312 312 312 313 313 314 314 313 313 314 315 314 314 314 315 314 314 313 313 313 313 313 314 311 307 302 303 309 314 324 322 324 323 328 326 318 308 307 304 304 302 303 303 305 301 302 300 299 300 300 301 299 297 295 297 297 296 300 298 300 299 298 299 298 298 299 299 300 310 320 318 318 320 325 325 324 327 328 331 332 332 332
311 312 312 312 312 311 312 312 312 313 313 314 313 313 313 314 314 314 314 314 314 314 314 314 314 313 313 313 312 309 302 300 303 310 315 328 326 323 324 329 326 314 312 302 302 301 302 302 302 301 302 299 298 300 300 300 300 298 298 299 298 295 297 301 301 298 299 298 298 297 299 299 299 308 315 320 312 310 317 323 327 329 330 329 330 331 332 331
311 311 312 312 311 312 312 312 312 312 313 313 313 313 313 314 314 314 313 314 313 313 313 313 313 313 313 313 310 306 302 291 306 309 330 332 327 324 325 329 326 306 302 302 301 301 302 300 303 301 299 299 298 298 300 299 299 296 297 296 297 298 298 300 299 298 297 298 298 297 299 299 299 302 312 312 308 309 317 322 327 331 332 333 334 332 331 331
311 311 311 311 311 312 312 312 312 312 312 312 312 313 313 314 313 313 313 313 313 313 313 313 312 312 313 311 309 305 298 298 307 312 329 333 328 325 326 327 322 304 303 301 301 301 300 300 301 298 299 297 296 298 299 299 297 298 297 296 298 296 298 299 300 297 297 297 298 299 298 298 298 298 312 317 324 326 327 325 329 332 333 334 332 332 331 331
311 311 311 311 311 311 311 312 311 311 311 312 313 313 313 314 314 313 313 313 313 313 313 313 312 312 312 307 304 302 298 299 307 312 336 331 326 327 326 318 310 303 303 302 300 300 300 300 300 298 299 297 297 298 298 298 296 297 297 297 298 295 299 299 297 296 296 296 298 297 297 299 299 299 314 316 323 327 329 330 331 331 332 332 332 332 332 331
311 311 311 311 311 311 311 311 311 311 312 312 313 313 313 313 313 313 313 313 313 313 313 313 312 312 312 305 299 292 294 304 310 321 329 325 324 318 315 310 307 305 302 299 300 301 301 298 301 301 297 297 297 299 296 297 295 297 298 297 296 297 298 297 297 298 297 297 296 297 298 298 298 308 310 321 323 327 329 329 330 330 329 330 331 332 332 331
311 311 311 311 311 311 311 311 311 311 311 311 312 312 312 312 312 313 313 313 312 312 313 312 312 311 308 305 300 292 299 308 318 322 324 322 316 312 309 310 308 306 306 300 300 301 300 300 303 303 301 298 297 297 295 296 296 297 297 297 298 298 296 299 298 298 294 297 297 298 298 297 300 311 303 321 325 327 327 326 328 328 328 330 331 333 333 333
311 311 311 311 311 311 311 311 311 312 311 311 311 311 312 312 312 312 312 312 312 312 312 311 312 311 305 303 296 291 302 313 316 320 320 318 313 309 308 307 308 308 307 299 303 302 302 302 303 303 302 299 297 296 295 297 297 296 297 297 297 296 296 297 295 296 296 299 296 299 296 299 307 308 303 323 326 327 325 325 326 327 328 329 331 332 333 333
310 310 311 311 311 311 311 311 311 311 311 311 311 311 311 311 311 311 312 312 311 312 312 312 313 309 305 301 298 295 306 313 315 315 317 315 312 310 307 309 308 307 306 303 303 300 302 305 303 303 297 301 297 296 297 298 297 297 297 295 297 295 298 297 297 296 296 298 296 299 297 297 305 304 309 325 325 325 324 323 325 326 327 329 330 331 332 331
310 310 310 310 311 311 311 311 311 311 311 311 310 310 310 310 311 311 311 311 312 311 312 310 310 309 304 296 300 305 308 312 312 310 309 306 304 303 307 306 307 306 307 305 302 302 304 305 305 302 301 301 298 295 297 299 297 297 296 295 295 295 295 297 294 294 295 297 295 298 292 295 299 304 320 325 324 324 322 322 324 325 327 328 329 330 329 329
309 310 310 310 310 310 311 311 311 311 311 311 311 310 310 311 311 311 311 310 312 312 312 313 310 306 301 296 301 304 307 310 311 309 308 308 305 302 303 304 303 303 303 303 303 303 304 305 305 303 303 300 298 301 297 297 296 295 294 295 293 292 292 295 295 295 296 295 295 298 292 295 296 298 313 324 325 322 320 321 323 324 325 327 328 328 327 326
309 309 310 310 310 310 311 310 311 311 311 311 311 310 310 310 310 311 311 311 311 311 310 311 310 305 300 302 308 312 322 311 308 309 311 306 303 302 301 301 302 302 302 303 304 303 304 304 303 300 299 300 300 298 294 294 294 294 292 291 291 291 294 296 297 296 297 295 296 297 293 295 297 298 319 324 324 322 320 321 322 323 324 326 327 326 326 325
309 309 309 309 310 310 310 310 310 310 310 310 310 310 310 310 310 311 311 311 311 311 311 307 303 303 299 296 303 313 312 306 308 311 310 309 303 302 302 301 301 302 303 303 304 304 304 304 300 299 298 297 296 295 294 293 293 293 292 292 290 290 293 295 296 296 298 296 296 297 293 294 296 298 319 324 323 321 320 320 322 322 323 324 325 325 325 324
309 309 309 309 309 309 310 310 310 310 310 309 309 309 310 310 310 308 311 312 311 312 310 304 306 305 297 303 308 303 304 308 309 307 306 306 304 302 302 301 300 300 301 303 304 303 302 301 298 298 297 295 294 295 291 290 290 292 292 292 292 291 293 293 298 296 295 296 295 296 294 296 297 301 320 322 322 321 319 319 321 321 322 324 324 325 324 324
309 309 309 309 309 309 309 310 310 310 309 308 308 308 309 310 311 310 309 310 310 310 308 310 305 300 297 300 299 300 305 304 305 306 305 305 303 303 302 301 299 300 300 299 301 300 299 298 298 295 296 296 295 294 290 286 290 290 291 292 292 291 292 293 293 295 295 294 295 295 295 296 296 309 320 321 322 321 319 320 321 321 321 322 322 324 324 324
309 309 309 309 309 309 309 309 310 309 309 308 307 309 311 310 310 309 305 305 303 297 296 298 296 293 289 295 299 302 304 305 304 306 302 304 302 304 303 301 301 299 296 296 295 298 297 297 297 295 291 292 293 293 292 291 292 292 292 292 292 292 293 293 296 296 296 296 295 294 294 295 296 312 319 321 322 320 320 322 321 321 321 321 322 323 323 324
308 309 309 309 309 309 309 309 309 309 308 306 305 305 306 303 302 302 304 304 301 304 303 303 301 300 301 302 303 307 306 306 304 302 304 305 303 302 302 300 297 298 297 296 295 297 297 293 292 291 293 295 297 296 296 292 294 292 292 292 291 292 293 294 294 296 296 295 296 295 296 295 297 311 318 321 322 321 320 320 320 320 320 320 321 322 323 324
308 308 309 309 309 309 309 309 309 309 308 306 303 300 297 298 294 295 297 303 305 305 304 304 303 302 302 303 303 305 303 304 303 303 304 309 303 302 299 299 297 296 295 294 297 299 297 292 292 296 297 298 298 295 296 295 295 293 292 291 292 291 293 296 295 295 299 297 294 292 293 294 297 310 318 320 320 318 319 319 320 320 320 321 321 322 323 325
308 308 309 308 309 309 309 309 309 308 307 305 302 298 300 301 302 303 301 296 301 305 305 305 305 302 306 305 306 306 305 302 303 304 303 305 301 299 296 296 294 294 294 294 295 295 293 291 295 298 296 295 295 296 297 296 295 294 293 293 292 294 293 294 293 295 297 295 294 292 293 295 300 309 316 318 318 320 321 321 321 320 320 320 321 322 323 324
308 308 309 309 308 309 309 309 308 305 305 301 300 299 301 306 306 307 305 299 297 302 303 302 301 302 303 306 307 308 301 300 299 301 301 303 298 299 296 295 294 293 292 295 293 291 290 292 298 296 295 297 295 295 297 296 297 294 293 292 292 292 291 291 296 296 297 295 295 292 294 298 304 308 312 309 317 317 321 322 322 322 321 320 321 322 323 323
307 308 308 309 309 308 309 308 306 303 301 301 300 301 306 306 306 306 302 296 297 301 301 303 303 303 302 302 307 305 302 301 301 301 305 302 299 297 297 295 292 292 292 292 294 292 291 294 294 294 296 297 295 295 295 294 293 294 294 293 293 291 293 293 294 296 298 296 298 296 296 297 302 304 309 308 308 316 318 321 322 322 323 323 324 324 324 324
307 308 308 308 308 308 308 307 302 302 302 300 300 305 307 308 307 306 302 299 298 298 306 303 304 304 306 310 307 303 302 300 302 304 303 303 295 296 296 295 295 292 292 290 291 291 291 295 296 294 293 294 296 293 294 295 292 293 295 295 295 296 295 293 295 295 295 293 297 293 289 290 294 300 307 309 310 311 314 317 318 320 321 322 321 321 323 325
307 307 308 308 308 307 308 301 299 301 299 298 302 307 309 307 306 307 305 293 289 297 302 296 307 300 311 302 305 303 304 298 305 305 302 303 305 300 295 295 296 292 290 291 292 294 294 294 295 295 295 293 293 293 295 296 293 291 295 296 296 295 295 295 293 295 291 289 294 295 290 287 295 294 303 307 307 310 312 315 317 319 320 320 320 321 321 322
307 307 307 307 307 307 301 296 302 301 294 297 300 305 304 304 310 306 299 288 285 297 297 300 301 300 308 303 304 303 292 296 301 302 302 306 301 302 296 293 294 293 292 297 293 291 293 293 293 295 295 293 292 291 295 294 293 292 297 294 294 293 294 295 295 295 293 294 295 294 294 291 290 293 296 296 302 307 309 312 316 318 320 320 321 321 321 321
307 307 307 307 306 305 302 302 299 296 296 299 304 304 303 306 309 309 298 278 280 297 294 297 300 307 304 304 305 299 299 301 297 299 303 304 303 298 297 293 294 294 293 294 287 295 296 293 295 293 294 292 292 295 297 296 294 295 294 294 293 295 297 295 295 295 294 293 291 295 294 291 290 293 296 298 299 302 305 308 312 316 318 320 321 321 322 322
307 307 307 306 306 306 305 302 299 297 302 304 305 304 304 309 308 299 287 277 293 295 306 296 306 303 299 303 301 300 299 299 296 298 301 302 302 300 295 296 294 293 293 295 292 295 293 296 296 296 294 293 296 294 296 296 294 293 294 295 294 294 293 295 295 294 293 291 287 292 293 289 289 296 295 295 298 299 303 306 309 313 316 317 319 320 322 322
307 306 306 306 305 304 303 302 299 303 305 304 304 304 307 308 304 291 281 275 294 289 296 298 298 295 299 297 297 299 297 298 298 299 300 299 300 300 296 298 295 294 293 294 293 295 295 298 296 295 294 296 295 293 294 296 294 294 294 296 294 294 295 294 294 294 292 285 289 290 291 291 287 293 295 296 297 297 299 300 301 305 311 315 318 319 320 320
307 306 305 306 300 301 300 294 299 302 304 305 303 303 306 299 292 282 275 287 293 295 299 297 294 297 296 295 293 297 297 296 297 298 296 298 296 298 297 295 298 295 294 296 293 294 295 295 295 297 298 294 295 292 292 292 294 295 295 294 294 293 295 294 293 294 286 284 289 289 290 292 286 290 296 298 299 299 299 300 301 301 303 310 314 317 319 320
306 305 305 304 304 304 295 296 298 302 303 303 307 306 300 287 289 280 281 297 286 292 291 292 296 295 294 294 292 293 295 295 297 296 295 295 294 293 294 292 295 287 287 289 289 293 293 294 294 295 301 297 293 294 292 293 293 295 294 294 289 286 286 283 288 283 284 284 289 291 291 289 290 295 297 300 302 304 305 304 304 304 302 303 308 314 317 319
305 305 306 305 306 303 302 304 304 304 304 303 301 299 294 284 278 286 286 290 287 295 293 296 295 293 294 292 292 292 294 294 296 294 295 293 294 294 294 294 294 295 287 291 289 289 292 293 291 294 295 298 297 292 290 290 293 292 293 292 287 283 280 276 282 283 285 289 290 291 291 289 292 295 297 300 303 305 307 308 308 307 306 305 308 314 316 317
305 305 302 304 304 304 306 306 305 304 301 308 303 294 286 279 280 296 289 290 289 294 294 293 293 292 292 292 293 293 291 293 294 295 295 293 293 292 293 292 292 293 296 289 288 289 285 287 292 293 293 296 296 296 295 296 293 293 293 293 291 288 283 277 282 279 283 286 289 290 288 287 288 292 299 302 303 307 308 308 309 309 309 311 312 313 314 315
304 304 303 301 301 303 305 306 305 306 303 303 296 291 281 280 284 285 288 291 293 293 292 292 290 290 291 292 293 294 294 292 293 293 293 292 291 292 292 292 292 294 293 289 290 287 287 288 294 294 293 293 295 294 294 292 292 291 291 294 291 288 294 285 285 287 287 286 285 288 287 290 293 298 300 301 306 307 308 308 309 310 311 312 312 313 313 314
302 301 300 300 301 305 303 305 305 304 302 300 292 284 283 286 285 287 288 295 293 290 291 289 291 290 290 292 295 293 296 293 292 293 291 292 292 292 292 292 293 294 293 290 292 287 286 287 291 292 292 294 294 294 293 295 288 291 290 290 291 296 293 284 283 284 282 285 284 286 289 293 297 296 300 303 305 305 307 308 309 310 311 313 312 313 314 315
298 300 301 303 302 307 304 305 304 302 301 298 291 285 289 288 289 290 295 293 293 292 288 285 289 288 290 290 295 293 294 295 292 292 290 292 291 292 291 293 295 294 296 297 289 293 289 290 293 291 291 293 292 293 294 292 295 291 288 291 292 295 297 292 284 283 283 282 283 286 286 290 290 288 297 302 303 304 306 306 308 310 312 312 313 314 315 315
296 296 301 302 303 306 305 305 303 302 300 295 287 291 289 289 292 294 295 295 293 292 290 287 290 288 287 289 290 293 294 292 292 291 290 291 290 296 293 293 295 295 296 295 294 293 292 287 291 289 291 293 293 294 293 294 292 294 293 297 292 286 285 288 287 278 279 277 281 285 284 287 290 291 294 297 301 303 305 306 307 308 309 310 311 312 314 314
296 298 299 301 305 306 305 305 303 299 296 289 287 287 292 290 293 294 297 296 294 292 289 288 287 289 290 289 290 291 293 292 292 290 288 290 288 295 293 294 292 293 293 295 294 292 294 288 289 291 290 292 293 293 287 290 294 293 294 292 292 295 292 286 287 290 288 279 277 281 285 285 292 294 296 298 302 304 305 305 307 307 307 307 309 310 312 314
297 297 294 302 304 305 305 305 301 298 293 285 289 290 293 292 295 297 298 297 293 292 291 290 288 289 290 290 289 290 292 293 292 293 290 292 291 296 293 294 292 292 292 294 293 293 289 293 284 291 291 291 289 291 290 291 290 290 292 289 292 291 291 292 289 287 286 281 281 281 280 287 293 294 294 297 299 304 306 306 306 306 307 308 309 310 311 312
294 295 295 303 304 305 305 302 294 290 290 291 291 291 293 293 296 298 298 297 297 297 294 291 292 289 292 290 290 291 291 292 294 293 292 291 291 290 296 294 294 293 293 293 293 293 288 287 287 290 289 289 290 290 290 289 291 292 292 290 291 288 287 284 282 286 286 287 280 280 281 290 293 297 297 298 299 299 301 306 306 307 308 309 309 309 310 311
297 291 294 305 304 304 301 292 294 292 292 290 289 294 292 301 294 295 296 295 296 295 295 295 292 292 291 290 292 290 292 292 292 291 291 293 295 295 295 295 295 294 293 292 293 295 297 290 291 286 288 288 289 291 291 291 291 290 292 290 290 291 292 289 281 284 285 284 285 288 284 286 295 297 298 299 300 299 299 307 307 307 308 309 309 310 311 312
295 293 303 304 306 304 299 293 294 292 294 295 295 294 295 295 294 295 294 294 293 293 293 291 293 291 292 292 290 289 291 290 292 292 293 293 293 294 294 296 295 294 295 292 292 294 306 290 287 285 289 291 292 292 292 290 291 292 290 289 289 291 291 292 292 291 286 284 285 285 282 287 295 296 297 300 303 302 303 308 307 307 308 309 310 310 311 311
294 296 298 304 305 303 295 286 287 286 290 294 294 294 294 295 295 294 294 292 291 292 292 292 291 291 291 291 291 289 291 287 290 291 293 294 294 297 296 296 296 297 296 294 293 300 288 289 289 283 284 285 288 291 291 292 292 289 288 288 286 288 289 289 289 290 287 286 287 286 280 287 295 296 297 299 303 304 305 306 309 308 309 309 310 310 310 311
295 296 297 300 303 302 291 291 288 284 287 289 291 290 291 293 293 292 294 291 292 290 290 290 291 292 291 292 291 290 290 289 290 290 293 292 293 295 294 294 301 298 303 304 300 296 289 285 287 282 279 277 277 278 281 285 287 287 286 288 287 289 289 291 286 287 285 286 284 286 285 289 294 295 295 296 299 302 303 304 305 306 307 308 309 309 309 308
292 287 291 294 297 297 295 298 292 290 287 288 286 288 290 288 293 293 293 291 292 291 290 289 289 291 290 291 290 289 289 291 290 290 289 290 292 293 292 293 299 300 303 304 299 297 287 288 286 287 286 284 284 284 286 287 289 287 287 287 287 286 288 292 291 286 285 285 286 287 289 290 291 290 291 293 295 296 298 299 301 302 304 306 306 306 305 305
292 288 285 286 293 294 291 293 290 291 288 290 285 287 286 287 289 291 294 291 291 291 290 288 287 290 289 291 289 288 287 289 290 290 287 288 290 292 293 291 292 297 305 301 300 292 289 286 288 287 285 284 285 285 287 288 286 285 286 287 287 288 288 292 288 286 290 287 283 288 288 291 288 288 290 291 293 295 297 297 299 300 301 302 303 303 302 302
288 287 291 292 288 285 287 288 290 290 291 290 286 288 285 286 287 285 290 292 291 292 289 289 288 286 285 288 291 287 287 287 287 285 288 288 289 292 291 292 290 293 298 294 299 294 288 283 286 288 285 288 288 288 290 288 287 286 286 286 287 288 291 288 284 285 288 287 286 287 289 288 286 288 289 291 292 293 294 296 298 299 300 301 301 300 300 300
291 289 291 292 287 287 289 290 291 290 288 290 287 287 285 285 284 285 285 289 290 289 289 284 285 286 286 287 289 286 285 286 283 287 286 288 287 289 290 292 293 292 293 296 294 296 293 285 286 287 285 287 288 288 290 289 288 288 287 286 286 288 287 288 286 286 287 287 287 288 287 285 287 288 290 291 293 294 295 297 299 299 299 300 299 299 299 299
288 287 289 291 290 289 289 289 290 289 285 289 285 286 285 285 285 286 287 286 284 286 289 287 285 287 287 287 288 286 285 287 287 284 287 288 290 289 287 288 288 292 292 293 293 294 295 286 289 288 285 285 287 289 290 288 288 286 286 287 287 287 287 287 287 287 288 287 287 288 286 285 288 290 290 292 293 295 296 296 296 297 298 298 298 298 298 298
292 292 290 288 285 286 290 288 288 287 285 286 284 285 286 285 285 287 285 288 286 284 285 285 287 287 287 287 286 285 286 286 288 288 289 289 287 289 288 288 289 288 289 291 292 294 295 287 290 289 283 282 285 286 288 289 288 286 285 286 286 287 287 286 284 285 286 286 286 288 286 284 287 289 290 291 292 292 292 293 293 294 295 296 295 294 295 295
293 292 291 290 284 286 284 286 289 289 283 285 286 285 284 286 288 288 285 288 288 288 287 287 287 287 287 287 286 286 287 287 289 290 290 291 291 291 291 290 290 289 288 288 289 290 291 288 286 286 283 282 284 285 286 287 286 284 285 285 284 283 284 283 284 285 284 285 286 286 285 287 288 290 288 288 289 289 289 290 291 291 292 292 292 292 293 293
Wind_Speed
14 14 13 12 13 13 12 12 12 11 11 10 10 10 11 11 11 11 12 12 11 12 12 12 12 13 13 13 13 14 9 12 11 5 4 12 8 10 12 3 13 16 5 3 6 8 5 5 6 1 4 3 1 3 1 1 1 2 4 2 3 1 6 5 6 6 2 2 5 6 4 5 4 4 6 8 10 8 6 5 5 6 5 5 8 15 16 15
14 14 13 13 13 13 12 12 12 11 11 11 10 10 11 10 11 11 12 12 11 11 12 12 12 12 13 13 14 12 10 11 12 8 17 6 9 12 10 3 10 15 8 2 7 5 9 4 4 5 6 5 1 1 1 3 1 2 2 2 5 4 2 4 2 4 1 3 4 4 1 2 2 5 4 2 3 5 5 4 3 6 8 11 13 15 16 15
14 14 13 13 13 13 13 13 12 12 12 11 10 11 11 11 10 10 10 11 11 10 11 11 12 13 13 13 13 6 11 8 6 7 3 9 11 12 10 6 11 17 11 5 4 7 8 10 8 7 1 4 2 3 1 2 3 1 3 5 2 6 3 4 3 3 5 2 7 6 2 3 3 2 3 3 7 4 5 5 2 5 7 12 13 15 15 15
15 14 14 13 13 13 13 13 12 12 12 12 11 11 11 10 11 10 9 10 10 10 10 11 12 12 13 13 12 5 6 5 2 0 1 5 13 12 12 10 14 12 4 2 5 4 4 7 5 3 3 3 2 0 6 3 4 3 2 2 3 4 3 3 7 8 4 3 4 1 2 1 2 1 3 6 6 4 4 7 6 11 13 15 15 14 15 15
15 15 14 14 13 13 13 12 12 12 12 12 11 11 10 11 10 10 10 10 10 10 10 10 10 12 13 13 8 3 4 1 2 3 2 4 13 14 14 12 14 5 2 6 8 5 4 6 4 2 2 4 1 2 3 3 2 4 4 2 4 3 4 7 5 4 4 2 2 1 6 2 1 2 4 9 5 3 3 7 6 9 16 18 17 15 15 16
16 15 14 14 14 13 12 12 12 12 12 12 11 10 10 11 10 9 9 9 9 10 10 10 10 11 12 11 2 1 2 1 1 3 5 5 13 14 15 12 11 7 9 6 4 3 7 3 5 6 3 4 6 7 2 1 3 5 2 3 3 4 5 2 0 1 3 2 2 4 1 1 2 2 3 1 4 2 1 3 7 11 16 16 16 18 17 16
16 16 15 14 14 13 13 12 11 12 12 11 11 11 10 10 10 9 8 9 9 9 9 9 9 11 10 7 1 2 0 6 3 2 7 10 12 14 14 12 9 7 5 7 4 4 1 4 3 3 4 3 0 3 3 4 1 3 3 1 4 6 8 3 4 2 2 2 4 1 1 5 1 3 3 4 1 5 6 6 9 13 15 16 16 17 18 18
16 16 15 15 14 14 13 12 11 11 11 11 10 11 10 10 9 9 8 8 8 9 9 8 9 10 7 4 1 1 1 6 4 3 1 12 14 15 13 7 7 5 6 7 7 5 4 7 8 3 3 6 4 6 3 4 1 5 4 4 2 4 6 4 3 5 4 6 3 3 4 5 4 3 5 2 3 4 2 9 12 14 15 15 14 16 15 15
16 16 16 15 15 14 13 13 12 11 11 11 10 10 10 9 9 9 8 8 8 8 8 7 8 7 6 1 2 3 3 4 1 3 5 10 10 12 12 8 5 8 5 4 2 5 6 3 3 5 4 4 3 6 3 6 5 6 6 3 2 4 4 3 4 7 5 2 3 2 7 0 2 3 4 2 1 2 6 9 12 13 15 15 15 15 15 14
16 16 16 16 16 15 14 14 13 12 11 10 10 10 9 9 9 8 8 7 7 7 7 7 7 7 4 2 1 1 1 2 3 2 5 9 9 9 3 7 9 8 8 2 5 5 5 5 5 6 5 4 4 2 3 5 1 4 3 5 6 3 4 2 4 1 1 2 4 5 1 2 1 3 3 4 4 6 8 9 10 13 15 15 14 14 13 12
17 17 16 16 15 15 15 14 13 12 11 10 10 9 9 9 9 7 7 7 6 6 6 5 4 4 1 2 1 4 0 2 2 3 6 8 9 8 8 8 7 6 6 2 5 6 2 3 2 3 1 1 5 2 3 2 3 3 2 1 4 4 5 5 5 7 1 4 8 7 2 1 3 1 3 5 8 9 9 10 11 12 13 13 14 14 12 11
17 17 17 16 16 15 15 15 14 13 11 10 10 10 9 8 8 7 6 6 5 4 4 4 2 1 1 0 4 7 2 3 2 4 5 7 5 1 3 7 9 8 8 7 7 2 1 0 4 1 2 4 2 2 2 2 1 1 2 3 1 2 5 4 6 2 4 3 5 6 4 3 4 5 2 8 10 10 9 10 11 12 12 12 13 12 10 8
18 17 17 16 16 16 16 15 14 13 12 11 10 9 9 8 8 7 5 5 4 3 2 1 0 1 1 4 7 6 1 1 4 5 4 2 4 4 4 1 1 4 6 7 2 3 3 3 1 3 2 2 1 1 3 1 1 3 3 1 3 2 4 1 0 1 4 2 6 7 7 5 7 5 5 10 11 11 10 9 11 10 10 11 12 11 8 5
18 18 17 17 16 16 16 15 15 15 13 11 10 9 9 8 7 6 5 4 4 4 1 5 2 0 1 6 5 2 3 1 4 5 4 3 5 3 4 3 3 2 3 4 1 2 6 3 3 4 1 3 1 1 2 1 1 3 1 0 1 1 4 2 1 4 5 2 8 4 8 4 5 5 7 10 11 13 12 11 12 12 12 11 11 9 6 5
18 18 17 17 17 16 16 16 15 15 14 11 10 9 8 8 7 6 5 3 3 3 5 4 2 2 1 7 4 7 5 4 5 6 8 7 6 4 2 3 3 3 2 3 2 1 2 3 0 1 1 1 0 2 1 1 3 2 4 3 0 3 3 4 3 7 8 2 2 6 7 7 3 3 11 11 11 12 10 12 13 13 13 13 10 8 6 5
18 18 18 17 17 17 16 15 16 15 14 13 11 10 9 8 7 5 5 4 0 4 4 1 1 2 2 7 2 2 2 2 2 4 5 4 6 3 6 5 3 3 3 1 1 1 2 3 1 0 1 2 3 3 2 3 1 2 3 1 3 1 1 5 3 3 4 3 2 9 4 1 5 3 10 12 12 12 10 10 11 13 13 13 11 7 6 5
18 18 18 17 17 17 16 16 15 15 15 13 13 11 10 7 5 2 1 4 4 2 3 1 2 2 2 1 4 3 1 4 2 3 4 1 3 8 11 7 4 4 1 3 3 2 2 2 1 1 4 1 1 2 4 1 1 4 1 3 1 4 3 3 1 2 1 4 5 4 5 5 2 1 11 12 12 12 10 10 10 10 10 11 10 8 8 7
18 18 18 18 18 17 16 16 16 15 15 14 11 8 5 2 7 5 1 3 2 2 1 0 1 2 7 3 3 1 1 3 1 4 3 1 6 9 5 4 4 6 5 2 2 4 1 2 2 2 1 1 2 3 5 6 6 5 3 3 3 2 4 4 2 2 2 1 5 4 8 9 1 2 10 12 11 10 9 9 10 9 10 11 9 9 9 8
19 19 19 19 18 17 17 16 15 15 14 13 7 5 7 7 2 1 3 2 3 1 1 3 2 2 1 2 2 5 3 3 3 4 4 9 2 3 4 4 9 10 4 2 1 3 1 2 1 2 4 3 5 4 6 1 4 5 3 1 1 2 3 3 3 0 2 5 6 7 9 12 6 5 9 11 12 11 9 8 8 9 9 10 10 10 9 9
19 19 19 19 18 17 17 16 15 13 13 7 4 1 1 1 1 2 1 2 5 8 10 3 6 4 7 6 7 6 2 2 3 0 4 1 8 5 2 2 3 3 4 5 3 3 1 4 4 5 4 5 4 5 2 4 2 5 3 2 2 3 5 5 4 3 1 2 9 8 9 6 6 8 11 12 11 10 10 11 9 9 9 10 10 12 11 11
20 19 19 19 19 18 17 16 13 12 10 4 5 1 2 1 2 3 3 8 8 7 9 9 14 11 7 1 1 3 4 2 2 0 6 4 4 10 1 1 2 3 1 1 4 1 2 3 5 5 7 6 4 5 7 5 1 2 2 3 2 3 5 2 1 3 2 6 1 2 6 6 1 3 8 10 11 13 12 11 10 10 10 10 11 12 12 11
20 19 19 19 19 19 18 17 14 12 5 2 2 3 1 3 1 1 1 7 5 13 11 14 1 8 4 7 1 2 2 3 3 1 1 5 6 8 2 2 3 6 1 1 2 3 3 6 5 8 3 6 5 4 3 4 4 2 3 1 2 4 6 6 1 1 2 3 3 1 7 2 2 2 8 10 9 7 9 9 9 9 10 10 10 11 11 9
20 20 19 20 20 19 19 17 13 5 2 2 2 1 4 1 2 2 2 4 11 4 9 6 5 10 9 2 4 6 6 7 4 3 7 5 4 3 6 4 3 3 1 2 6 2 4 6 8 4 7 7 3 3 5 5 2 3 2 2 5 2 1 3 2 3 4 1 2 4 6 2 3 3 2 2 2 2 3 6 7 8 10 11 10 10 10 11
20 19 19 19 20 20 19 18 3 3 3 3 3 7 3 2 2 4 4 4 8 3 6 6 8 4 7 4 7 11 9 3 4 5 1 6 7 2 5 5 4 3 5 5 6 7 5 3 3 8 6 7 5 3 6 4 5 1 4 4 3 3 3 3 1 2 1 2 3 8 5 2 2 6 4 1 2 3 3 6 7 9 9 9 8 9 11 11
20 19 19 20 19 21 20 15 1 2 2 2 5 7 7 5 2 2 3 4 2 6 0 1 3 5 5 3 6 10 5 2 7 1 7 8 6 5 3 2 3 5 3 3 4 2 7 3 5 7 3 3 5 3 6 6 3 2 6 10 8 2 4 5 2 2 2 3 4 1 4 3 1 3 6 5 2 3 2 7 8 10 11 10 11 12 11 9
20 19 19 19 20 21 20 1 1 2 4 5 3 2 3 3 3 3 1 3 5 3 2 1 3 1 5 4 6 2 8 5 6 5 6 6 6 5 3 2 1 7 5 7 4 2 3 4 6 5 5 5 5 4 3 7 3 3 4 10 10 6 2 0 2 2 3 3 2 1 3 3 2 4 7 7 8 9 4 8 10 11 11 13 13 12 11 12
20 20 19 18 18 18 6 0 2 5 4 2 1 2 4 4 2 4 2 2 2 2 1 1 3 1 1 4 7 6 5 4 3 5 6 3 9 1 6 3 1 4 2 3 2 5 4 3 5 3 5 4 4 5 6 11 5 5 1 6 6 6 7 4 3 2 1 2 1 1 2 3 5 2 1 1 6 7 7 8 9 11 13 14 13 13 13 12
21 19 19 18 16 10 4 6 7 2 7 2 1 4 4 3 4 1 1 3 2 1 0 2 2 2 2 3 5 4 2 5 6 6 1 5 5 2 2 5 8 7 5 4 7 2 5 5 4 4 2 3 4 5 7 11 6 1 2 4 7 6 3 5 1 2 1 2 3 1 4 3 1 3 0 5 8 8 10 10 10 10 10 11 12 13 14 13
20 20 19 18 16 12 6 5 2 7 3 2 5 5 4 1 1 3 1 1 1 1 1 3 2 4 2 4 6 4 2 2 1 2 1 3 4 3 5 7 4 4 2 4 6 1 3 5 8 6 5 4 4 2 9 12 7 1 6 8 7 6 5 0 2 3 1 2 3 2 6 3 2 2 3 2 4 7 7 8 9 10 11 10 10 10 10 9
21 21 20 16 12 3 2 3 9 8 3 7 7 6 2 3 0 1 3 3 3 2 1 2 1 1 3 7 4 3 4 2 1 3 2 5 3 3 4 3 5 4 5 2 3 2 2 2 2 3 5 3 4 4 1 1 3 7 3 8 4 4 2 2 4 1 3 2 1 4 4 3 5 2 0 2 2 1 3 3 3 4 7 9 9 8 8 8
23 23 19 14 6 2 2 4 9 7 5 4 7 2 2 6 2 2 3 4 3 2 1 1 1 2 7 7 4 1 1 2 3 6 5 1 3 3 3 4 5 3 2 2 4 2 1 2 2 3 2 4 4 6 4 3 4 4 3 3 4 3 1 2 2 1 2 2 2 3 2 3 6 3 3 3 2 2 4 6 5 5 6 7 8 7 7 7
24 23 20 11 8 4 5 5 0 3 4 8 6 2 3 3 3 4 4 3 0 1 3 2 1 1 1 1 1 5 6 2 4 4 7 6 6 7 5 5 4 3 3 2 5 3 4 8 1 3 2 4 4 7 2 2 1 2 4 4 5 2 0 3 1 4 4 2 2 2 1 2 3 2 2 6 5 5 4 5 7 7 7 5 5 6 5 5
24 24 22 11 10 9 14 10 5 7 9 9 3 2 3 2 6 4 4 2 1 2 2 3 2 1 1 2 4 3 2 7 3 3 3 2 6 8 2 4 5 5 3 2 2 1 3 1 2 3 1 4 6 5 5 4 4 3 6 4 5 3 2 1 1 2 3 2 1 1 2 2 3 3 2 6 6 7 6 6 6 8 7 4 3 6 6 6
24 22 11 3 7 10 6 3 3 4 4 0 3 5 5 3 5 1 5 3 3 2 2 1 4 2 4 4 1 5 5 2 6 5 6 4 5 5 5 0 4 3 2 2 3 3 2 3 5 5 4 3 7 8 9 5 9 5 3 6 6 6 4 3 4 4 4 2 2 0 3 3 7 3 3 5 5 5 5 3 2 1 2 6 7 8 9 9
23 14 5 1 3 8 12 9 3 1 1 2 3 3 7 7 1 4 3 2 3 2 3 2 2 1 2 1 2 2 2 3 1 5 5 6 4 3 6 7 4 2 3 4 1 1 2 3 2 1 2 1 7 0 5 7 6 1 1 3 4 5 3 5 1 2 3 3 1 3 1 1 1 2 5 4 3 5 4 3 2 6 7 9 10 10 9 9
11 2 1 2 2 3 5 5 6 4 4 4 4 3 8 6 4 4 1 3 2 1 4 2 2 1 1 2 2 3 1 2 2 3 0 3 2 6 2 2 7 10 6 5 3 4 1 2 1 3 1 1 2 3 1 1 6 4 4 6 1 4 7 5 2 2 1 1 2 2 1 1 2 2 3 0 2 4 3 3 4 7 8 9 9 10 11 11
3 5 2 3 2 1 3 6 8 6 3 4 4 6 5 2 4 4 1 2 2 1 2 1 1 1 1 3 1 2 2 4 3 1 4 2 2 5 3 4 3 6 8 5 1 3 4 2 1 1 2 3 1 1 5 5 0 8 5 5 5 1 3 2 3 1 0 3 1 1 1 2 4 2 5 5 5 5 4 4 4 4 7 10 8 7 8 9
5 3 2 3 9 3 4 8 10 4 3 5 7 3 1 5 3 3 0 2 1 3 2 1 2 1 1 0 1 1 3 3 0 1 1 3 1 3 1 3 4 7 9 0 4 2 3 3 0 1 1 2 3 2 6 5 5 2 0 8 4 2 5 2 2 1 3 3 1 2 1 2 4 1 1 5 6 7 6 5 5 5 4 5 6 6 7 7
1 1 2 8 8 2 4 8 5 7 5 5 3 5 3 4 2 2 2 2 1 3 0 2 2 2 1 1 1 3 3 4 3 1 2 1 2 1 2 2 3 2 1 6 4 2 1 3 3 0 2 2 2 1 6 2 5 6 5 5 3 1 2 4 1 1 5 3 1 2 3 2 5 0 3 2 3 5 7 5 5 3 4 4 4 4 4 4
2 1 3 6 6 3 7 3 3 4 3 7 5 4 1 3 4 4 4 3 1 3 2 1 2 2 1 3 1 2 1 1 4 3 2 1 2 1 2 2 2 2 2 4 3 1 2 1 2 1 2 1 6 2 3 4 6 4 4 2 2 3 2 2 3 0 3 3 2 2 2 3 2 3 4 4 3 3 6 6 2 2 2 2 2 2 2 4
1 2 1 2 3 3 2 0 3 5 4 1 2 1 1 1 1 1 1 3 1 1 2 3 3 2 1 3 3 2 2 1 1 3 4 3 1 1 3 3 3 2 2 5 5 2 3 1 4 1 2 3 2 2 3 3 1 3 6 5 6 8 7 7 4 2 0 3 3 4 4 2 3 2 4 6 3 2 2 5 4 4 5 4 4 1 2 5
2 3 4 7 2 2 2 3 2 0 2 2 4 3 2 2 0 3 1 2 2 2 3 1 2 4 2 4 4 2 1 2 2 2 2 5 5 5 3 2 1 1 0 3 3 1 2 3 3 1 1 2 3 4 2 0 3 1 2 3 3 1 3 3 3 4 1 1 1 1 1 2 4 5 5 5 5 4 3 5 6 6 6 6 5 4 6 6
4 3 4 5 3 2 2 1 1 1 1 1 4 3 2 1 2 0 1 1 1 1 1 1 3 3 3 4 1 3 2 3 2 2 2 3 5 3 3 3 1 2 2 1 1 1 2 1 2 2 1 1 3 2 2 2 2 1 6 3 2 3 2 2 1 5 4 3 2 2 2 2 4 6 6 6 4 1 3 5 10 7 8 8 9 8 6 6
0 1 4 7 7 2 4 1 1 3 4 4 1 2 0 2 1 1 1 2 1 1 2 1 1 1 1 2 2 2 1 3 1 1 2 1 4 2 4 3 1 4 2 1 2 3 0 3 2 2 2 1 0 2 1 0 3 3 2 2 2 3 4 3 4 1 2 5 1 5 4 3 3 5 7 7 6 7 7 5 7 9 6 7 7 6 6 6
1 1 1 6 9 6 4 1 0 2 3 3 3 6 8 3 1 2 2 3 2 2 0 0 1 3 0 2 2 1 3 2 1 3 2 2 2 3 4 6 2 8 4 3 7 2 6 3 1 4 5 5 6 4 3 3 3 1 1 2 2 1 9 5 3 3 3 4 2 3 2 3 4 6 9 10 7 8 7 7 8 7 7 6 7 7 8 8
4 1 5 6 6 7 6 1 1 1 0 3 2 4 3 4 2 4 3 4 2 3 3 3 1 2 2 2 3 3 4 3 1 2 3 2 3 3 3 4 5 6 9 11 7 5 3 1 3 3 2 2 3 1 3 2 1 3 3 5 5 4 6 2 4 2 4 4 4 0 1 7 2 8 8 9 7 7 7 8 7 8 8 7 7 8 9 9
2 4 2 4 4 6 3 6 8 5 2 3 2 6 6 4 4 1 4 2 6 1 3 6 5 1 1 2 3 3 2 2 4 4 5 2 2 2 4 2 2 8 3 7 11 9 3 3 6 6 10 5 1 2 5 4 5 6 5 5 5 4 6 1 2 2 3 8 3 3 2 6 3 5 6 7 7 6 6 6 6 7 7 6 7 9 11 11
4 1 1 2 2 4 5 5 10 6 10 3 4 4 6 7 9 4 6 5 2 6 0 0 10 8 2 2 2 3 5 3 5 2 4 2 2 4 2 6 6 7 3 2 4 6 6 4 3 4 7 8 8 9 8 9 8 6 6 5 7 7 6 4 2 3 2 0 1 5 4 6 3 4 5 5 5 5 5 6 6 5 6 7 10 12 12 12
3 1 1 3 1 2 2 6 8 6 10 9 3 9 10 11 9 6 3 5 4 8 8 3 8 11 7 0 2 4 3 1 3 2 3 4 5 3 3 3 1 7 6 3 3 2 6 1 4 5 5 7 9 8 9 11 6 7 10 9 7 8 7 8 7 3 4 6 6 9 11 8 4 4 5 5 4 4 5 4 6 9 8 9 13 13 13 12
4 3 2 4 4 3 5 4 5 6 8 9 4 9 6 10 8 8 6 7 2 5 6 5 6 7 10 10 5 6 4 4 4 3 3 1 2 5 2 3 4 5 5 3 1 2 3 3 6 4 3 3 7 6 5 10 9 6 4 4 5 3 7 8 6 6 9 11 7 8 11 7 5 4 4 4 2 3 9 13 11 10 10 13 14 14 13 13
0 1 0 1 4 6 2 2 3 5 5 8 7 7 5 12 8 8 6 5 8 3 5 4 4 4 3 8 11 8 3 3 4 3 3 3 3 1 1 1 2 4 7 4 3 3 3 3 2 3 5 2 1 2 6 7 7 5 3 5 7 8 4 3 2 3 3 6 7 8 6 4 4 5 5 5 8 12 12 12 11 10 12 14 15 14 13 13
1 1 0 1 3 5 4 5 5 1 7 4 3 5 4 9 7 4 2 5 6 7 4 4 4 0 4 9 9 7 7 5 6 6 4 4 4 2 1 1 1 2 2 2 1 1 1 7 5 3 4 3 2 2 2 4 4 5 3 1 3 1 2 5 4 6 5 3 5 3 4 6 6 2 8 10 11 12 12 10 11 13 12 14 14 13 12 11
Wind_Direction
337 333 330 329 324 324 324 324 322 318 316 315 317 314 314 314 317 316 313 319 321 319 319 319 318 317 316 318 320 318 338 314 299 264 232 241 185 173 169 84 163 190 182 103 111 135 112 130 130 157 129 182 32 181 84 191 97 179 189 186 213 153 190 170 214 186 79 294 2 355 15 22 42 111 116 106 65 83 93 72 65 63 72 76 100 121 129 139
339 335 334 328 325 323 325 324 322 318 315 314 314 316 313 313 313 312 317 321 323 318 318 319 319 319 321 318 320 331 336 310 290 260 236 202 178 160 173 137 159 174 158 97 141 150 139 149 145 153 147 158 339 142 177 156 239 189 109 204 231 161 168 190 207 192 299 347 309 315 30 65 1 176 167 156 111 124 87 56 66 76 84 100 123 129 135 147
342 340 335 332 326 326 326 322 321 317 315 315 314 315 313 312 311 313 316 318 319 320 317 320 322 323 315 317 322 25 336 307 261 261 271 193 179 162 158 135 142 156 169 149 201 163 166 164 158 145 69 128 5 150 200 111 212 164 203 207 223 207 265 210 214 239 208 330 312 330 46 321 355 230 153 214 150 162 165 149 139 145 144 137 139 141 143 153
345 342 339 334 331 328 325 322 318 317 313 312 315 311 310 309 309 313 319 318 314 314 318 321 322 321 313 319 334 5 331 278 256 45 306 164 172 157 155 137 141 147 118 70 152 141 89 97 125 148 116 144 121 294 176 151 210 135 218 222 187 176 223 216 180 243 241 224 289 323 296 20 99 191 225 132 146 223 236 205 171 181 163 153 152 149 150 158
350 347 342 340 335 330 326 321 317 313 312 310 311 310 308 306 308 314 316 314 315 322 323 326 323 316 318 324 2 359 326 269 104 249 296 100 157 158 153 149 152 148 127 135 112 86 102 129 132 48 126 142 143 143 215 152 282 135 226 165 111 130 233 269 272 164 200 180 243 25 325 15 103 97 189 173 190 191 233 201 211 174 164 160 158 158 160 167
351 350 348 343 340 336 328 323 317 313 311 310 310 309 305 307 310 314 311 312 319 323 323 325 322 321 320 335 334 11 274 45 303 296 355 108 147 154 152 149 138 122 125 114 120 131 137 80 155 156 141 146 165 179 161 185 149 219 150 225 204 181 239 293 260 210 173 202 215 304 350 311 92 110 210 216 254 342 353 297 185 180 170 168 158 157 167 174
350 351 350 349 345 339 335 325 320 315 310 311 307 304 304 307 309 310 312 315 318 318 323 323 322 322 335 339 121 309 230 285 300 267 351 116 140 145 147 144 130 126 131 111 125 141 68 110 142 146 121 75 203 192 147 174 217 236 216 136 208 199 228 214 258 142 223 219 258 156 18 281 170 273 143 221 222 307 309 186 167 165 167 164 163 171 172 176
350 350 350 350 349 343 337 332 324 317 314 307 304 301 305 307 311 310 312 312 312 316 319 323 324 327 357 350 273 260 69 251 265 344 63 125 134 138 131 112 133 129 146 142 142 132 149 152 165 151 155 171 169 182 142 152 138 203 233 191 232 203 232 243 263 271 255 251 269 240 268 259 186 223 151 221 358 346 87 141 148 156 163 169 170 171 175 178
349 350 350 350 350 347 342 336 330 323 315 309 303 303 304 308 305 306 307 311 313 317 319 322 327 325 101 86 54 311 234 244 297 348 112 122 128 122 136 132 179 140 124 100 53 145 171 201 130 210 184 181 157 167 177 186 220 200 223 188 142 241 265 268 278 258 254 258 178 174 244 132 223 119 226 85 114 122 131 137 147 156 166 172 175 177 180 182
348 350 349 348 349 348 345 341 335 327 319 310 307 307 303 303 302 303 310 311 313 313 314 326 327 349 347 341 239 299 68 87 28 69 122 123 124 135 54 127 152 129 136 124 122 126 198 184 185 183 121 70 173 134 152 200 193 159 192 209 244 270 332 298 232 339 69 236 181 225 262 26 29 226 213 123 140 151 146 147 157 165 173 176 179 185 184 182
348 348 348 348 346 346 346 343 339 330 322 315 308 303 304 299 302 305 308 306 314 312 314 327 2 20 39 341 71 260 242 98 14 103 126 135 135 151 150 153 150 132 116 137 193 196 155 167 170 127 278 133 172 146 199 156 115 162 165 236 247 305 257 254 306 265 280 264 184 217 67 109 91 191 261 131 150 159 155 157 164 175 175 181 186 188 184 180
347 347 347 346 345 345 344 345 341 336 326 319 312 308 305 305 305 305 301 305 303 327 328 301 45 339 357 198 205 233 22 79 129 116 131 149 149 140 121 164 166 148 151 170 215 120 192 124 160 229 159 183 130 142 213 172 222 68 178 273 282 331 267 177 228 358 185 244 146 159 136 159 148 202 96 145 150 163 161 164 169 176 179 184 187 187 182 178
346 346 346 345 344 343 342 342 342 339 332 323 319 311 308 304 298 295 296 293 295 297 313 41 170 161 257 292 224 235 244 151 127 122 123 80 101 54 133 169 295 153 162 167 153 193 180 165 283 90 113 151 173 319 100 77 72 129 92 305 283 334 252 155 255 69 180 256 163 164 234 216 209 156 139 155 161 160 158 167 175 178 185 184 180 183 177 159
346 345 345 344 343 341 341 339 340 340 337 326 318 311 305 303 297 290 289 267 281 274 300 210 108 54 204 250 275 211 237 152 125 140 165 167 107 41 100 106 70 75 41 96 162 144 174 199 55 86 120 217 133 153 170 36 16 211 104 166 292 231 217 170 121 134 201 129 187 180 245 212 242 204 159 165 169 169 167 172 181 183 187 188 180 185 175 176
345 344 343 343 341 340 339 338 338 339 338 330 316 311 301 291 289 283 276 285 242 237 140 74 64 153 241 269 261 287 226 133 170 201 176 164 134 96 129 119 103 67 41 56 85 112 169 127 123 254 175 0 20 273 68 49 36 35 169 201 176 223 193 265 201 188 221 113 238 195 238 238 224 136 158 167 176 179 176 176 182 186 190 190 184 179 177 187
344 343 342 341 340 339 338 337 336 338 339 332 323 310 305 290 279 284 279 253 330 121 106 175 211 227 307 287 83 332 88 266 272 199 195 167 158 128 137 121 109 75 120 281 69 120 65 138 101 20 244 128 149 136 103 151 140 44 246 186 183 213 248 303 150 257 285 78 144 211 243 77 241 171 165 169 177 184 180 181 186 191 193 191 191 182 184 177
343 342 342 340 338 337 337 335 335 335 338 334 325 319 306 287 256 238 124 165 177 133 189 114 128 201 293 122 263 306 238 248 146 98 150 236 125 134 124 125 138 125 49 65 46 114 30 183 26 137 35 91 43 148 162 152 165 196 8 210 158 202 171 204 195 121 245 221 188 205 228 219 33 308 169 173 179 183 185 184 189 192 193 196 194 194 190 198
342 342 340 338 336 336 334 334 333 335 337 336 333 326 314 96 94 112 89 126 121 133 19 249 182 303 255 331 278 168 99 294 266 115 111 134 127 136 121 158 96 122 127 103 63 179 291 190 335 155 146 42 177 160 199 196 192 188 182 180 185 227 244 290 268 132 156 84 227 167 225 232 39 162 175 176 182 186 189 183 187 190 195 197 205 201 201 206
341 339 338 337 335 333 332 332 332 334 339 340 337 355 81 119 80 135 121 154 169 151 224 173 191 254 180 277 285 303 245 197 91 160 144 141 187 125 93 71 125 138 140 165 112 198 71 116 91 147 185 164 187 192 203 148 149 156 143 184 201 230 175 218 221 271 232 206 225 187 207 221 186 173 177 177 184 193 191 188 185 191 192 199 206 208 208 212
339 339 337 335 334 331 331 330 330 330 337 339 349 334 177 213 194 198 148 227 225 241 273 237 207 316 312 281 274 275 239 61 188 294 127 239 138 159 14 104 80 71 128 183 120 164 349 173 189 193 188 201 194 198 210 129 110 108 117 150 227 257 267 261 273 267 152 219 228 208 220 225 184 186 182 182 180 192 195 195 196 193 194 200 205 208 210 213
337 337 335 334 332 332 328 327 327 325 327 316 297 253 298 120 24 311 270 224 226 238 244 231 194 202 216 117 315 357 36 318 69 120 177 128 115 148 227 73 39 151 22 22 131 62 198 184 223 219 211 185 182 142 116 105 90 159 162 235 242 199 260 182 89 55 269 217 184 186 215 223 180 183 184 183 189 199 200 198 200 200 202 208 209 210 212 212
336 335 334 333 332 329 327 324 324 327 324 271 261 239 333 228 345 283 21 297 232 224 223 241 55 261 276 246 173 74 70 330 291 111 119 187 151 187 193 144 150 179 37 172 125 147 188 215 216 221 115 96 89 142 149 178 139 110 242 206 275 229 255 294 337 345 34 212 255 141 193 135 34 170 186 194 199 213 210 212 205 201 209 215 214 216 216 211
334 333 333 331 331 327 326 322 331 359 182 169 199 176 240 189 40 303 249 279 280 196 222 219 227 240 258 241 230 161 195 204 215 190 180 166 110 213 137 157 160 107 108 205 185 134 207 237 231 153 143 118 89 118 127 103 97 175 159 206 229 96 276 148 134 11 51 280 223 176 151 73 77 102 150 30 253 119 143 190 201 206 217 220 218 217 218 218
333 333 331 331 330 328 322 323 5 131 181 229 249 226 254 336 350 335 163 256 303 307 211 205 202 202 216 192 184 168 174 209 156 227 204 162 156 142 136 154 119 158 187 172 185 198 208 36 35 126 155 167 143 167 150 183 209 225 224 228 253 203 220 243 80 316 195 94 70 121 112 108 56 162 210 163 54 112 131 169 187 212 231 229 223 223 222 222
332 332 331 330 331 327 322 319 126 236 178 237 244 249 265 276 320 239 193 303 231 267 104 148 179 222 214 54 137 166 203 61 224 186 171 161 116 137 190 137 147 199 169 150 105 207 255 197 131 107 131 147 132 145 207 172 220 201 224 214 225 165 225 257 348 232 184 126 42 289 154 146 107 202 195 183 174 181 150 206 211 217 226 224 222 224 223 227
332 331 332 330 331 330 313 275 302 351 295 257 225 213 236 276 245 199 129 72 294 276 302 275 166 56 135 132 156 139 123 212 197 190 165 183 139 140 95 154 182 210 146 160 187 233 225 81 183 190 151 170 199 208 209 205 190 204 231 196 217 208 199 215 241 169 181 167 106 306 238 126 112 161 186 184 198 200 164 213 217 215 219 222 224 222 222 222
329 328 328 330 331 337 346 252 32 285 305 275 150 352 299 303 159 160 253 321 304 242 167 41 208 155 251 166 165 171 163 199 72 100 150 208 171 310 167 147 101 43 129 143 63 220 133 126 111 74 131 154 187 220 207 182 171 212 105 162 166 173 214 216 173 224 73 359 211 48 349 161 153 118 181 222 199 194 200 208 211 213 221 221 221 219 219 221
325 325 323 325 327 329 268 302 327 261 238 108 330 321 324 314 114 23 95 359 288 235 217 207 267 149 290 151 199 201 334 111 143 192 229 196 111 37 252 185 196 178 160 162 209 84 160 153 179 145 110 163 202 218 167 185 181 260 136 162 153 179 185 159 218 95 45 226 143 126 357 174 136 110 184 177 179 208 222 213 212 211 215 220 218 217 215 216
322 320 320 320 320 309 279 226 219 240 227 352 330 339 339 71 170 103 118 62 232 68 29 131 340 119 79 102 222 248 328 331 3 73 57 88 357 150 195 195 182 109 28 218 221 135 259 185 195 168 163 232 223 240 166 175 195 103 133 90 90 92 81 246 127 123 153 211 194 155 352 197 174 79 150 158 205 199 219 222 220 212 213 217 218 212 203 199
319 319 318 319 318 274 184 215 231 236 345 331 320 326 301 130 157 262 30 253 308 100 29 102 199 212 106 146 244 238 261 4 37 106 83 161 157 45 31 102 138 138 193 36 274 204 354 344 111 178 216 227 113 52 176 146 24 133 175 104 90 56 54 52 51 64 122 212 199 359 338 298 175 158 293 144 99 24 316 267 268 275 237 229 227 214 197 193
318 316 316 313 279 255 170 260 250 267 262 290 283 239 150 45 167 91 198 235 338 315 305 35 146 93 139 155 203 276 199 345 81 142 138 146 125 50 150 96 62 91 47 342 249 322 316 62 224 223 72 104 110 83 49 19 122 170 144 140 116 73 348 74 36 7 180 200 76 354 320 314 204 189 223 229 292 327 297 289 293 286 263 232 218 216 202 187
317 314 309 296 243 193 210 231 106 85 14 329 334 45 147 198 9 190 212 315 155 343 47 338 338 92 254 331 28 174 189 126 168 169 157 178 159 181 189 187 154 122 222 191 229 56 243 224 231 323 227 164 131 98 87 107 235 163 120 137 195 158 51 194 193 195 204 191 68 331 307 163 235 24 333 315 333 344 319 292 287 283 272 266 243 210 180 154
318 314 305 279 240 224 238 259 311 318 330 332 29 78 133 132 220 199 255 334 218 15 131 217 286 302 262 91 224 172 40 200 179 208 114 52 165 197 37 212 186 180 228 167 204 9 252 308 312 256 176 211 175 187 127 173 184 165 177 149 168 171 158 218 124 0 333 268 57 279 326 310 8 280 251 286 328 338 326 304 275 269 276 289 191 155 142 141
318 316 305 228 218 222 233 211 250 304 313 66 171 80 56 138 235 213 228 234 269 340 298 349 320 17 164 206 284 167 181 228 166 183 182 152 182 192 208 101 159 165 78 132 203 196 208 209 220 157 204 140 190 197 181 163 175 192 37 184 198 164 178 195 193 201 213 165 98 68 195 179 172 115 329 320 335 352 0 347 341 343 96 105 100 105 111 111
317 303 262 313 261 241 232 227 207 130 209 163 90 147 175 219 314 178 194 251 255 324 294 41 252 7 237 274 313 255 247 183 133 128 168 148 193 194 174 198 227 108 84 190 227 91 250 258 284 266 349 101 193 118 91 98 85 64 187 48 134 212 141 233 81 253 153 146 160 168 250 32 311 351 312 332 355 33 23 24 85 93 107 110 109 110 112 114
321 336 331 214 229 254 203 203 185 168 191 129 148 174 207 181 197 185 122 181 98 7 300 348 84 202 270 306 332 164 28 221 69 159 156 209 176 189 170 193 182 191 152 199 142 190 53 240 351 335 123 251 275 131 166 196 212 156 156 195 196 36 107 96 115 60 17 18 199 44 239 210 249 245 211 260 73 60 53 73 102 113 117 113 113 122 130 133
351 327 137 295 249 280 175 160 161 164 172 171 166 215 195 260 210 176 288 155 122 104 68 220 298 210 228 218 162 284 165 85 68 165 203 140 248 200 199 229 185 185 218 158 205 260 191 220 338 136 152 35 315 248 82 33 75 109 212 172 121 102 42 151 188 61 58 217 176 167 116 165 180 166 159 167 149 129 122 115 119 135 143 137 141 141 140 142
328 332 263 327 342 346 145 156 148 155 114 160 210 214 83 217 181 195 301 106 84 37 92 153 304 11 284 349 200 247 310 181 196 88 202 179 233 122 105 188 187 197 203 161 219 190 178 257 148 313 234 358 4 180 90 76 350 240 201 137 180 182 191 33 116 173 163 210 190 150 324 271 234 173 155 182 162 136 130 134 135 130 108 96 91 97 98 96
266 308 53 346 345 103 146 158 175 141 147 184 203 222 205 243 35 234 204 99 154 115 234 241 240 7 67 243 227 276 259 201 132 127 174 151 218 154 297 164 186 225 329 170 187 119 345 201 261 228 147 355 334 170 190 135 54 49 122 113 8 284 138 164 212 96 196 192 104 171 196 205 202 3 310 202 96 123 133 149 133 104 80 59 65 79 75 84
27 52 19 357 9 86 129 163 134 103 127 200 180 216 67 202 239 247 248 217 259 181 244 154 190 294 250 242 168 319 284 180 174 155 106 296 280 126 252 346 251 135 9 225 143 211 139 329 221 58 298 281 187 359 220 170 155 125 150 126 88 39 300 39 58 81 216 160 198 152 185 223 87 345 296 327 37 154 155 151 125 98 56 72 50 348 98 92
264 95 53 22 59 130 192 271 135 170 182 23 8 3 306 309 321 266 291 208 216 296 209 175 155 215 195 353 282 151 282 95 173 170 164 126 92 289 15 343 329 340 121 88 131 175 101 180 197 312 188 204 23 354 268 225 262 193 169 179 157 141 142 178 189 109 294 174 180 175 203 113 68 349 310 296 307 309 227 140 122 102 97 83 74 69 81 83
25 41 355 14 28 252 316 114 40 349 95 171 190 176 222 185 334 284 352 16 233 256 43 193 223 234 167 222 241 273 236 263 168 148 279 164 191 125 287 99 313 319 341 155 172 195 147 143 102 144 140 72 81 64 6 195 129 116 276 141 159 23 120 171 187 180 73 52 57 4 158 143 33 346 332 311 303 289 250 149 124 117 105 107 115 117 86 92
32 53 277 323 25 188 345 54 302 61 287 310 326 247 269 316 222 263 124 28 220 34 2 210 211 188 246 240 207 229 219 247 170 216 147 146 185 192 168 355 32 60 68 23 0 96 147 67 102 64 112 236 257 229 196 7 204 133 55 48 175 168 180 184 158 159 153 128 172 151 204 112 58 12 351 352 4 48 152 143 128 124 128 131 128 120 112 101
139 319 327 4 7 161 60 75 344 327 305 312 40 287 300 235 357 335 166 12 58 335 196 197 50 163 348 50 131 210 306 203 332 62 157 198 117 338 343 37 227 35 356 342 122 266 1 316 89 113 125 64 10 162 248 99 79 54 77 20 351 87 78 110 115 11 148 196 231 173 199 161 83 5 23 28 49 70 92 86 117 125 121 121 119 108 96 88
221 206 275 302 347 30 71 211 193 249 304 320 338 35 354 12 40 306 242 94 48 76 131 253 355 317 71 21 88 75 36 351 66 18 7 31 82 352 17 8 98 95 11 64 91 83 89 312 6 177 164 174 180 190 184 168 136 34 21 9 2 174 139 152 147 173 211 146 175 206 154 86 108 29 30 27 33 72 57 69 70 64 74 93 93 80 74 69
23 36 331 337 12 34 63 323 10 280 271 339 49 10 1 327 312 358 67 73 24 77 47 323 329 5 61 142 76 36 24 26 310 92 29 40 18 39 350 358 28 104 128 106 107 93 114 128 28 358 227 173 41 0 358 302 136 119 74 38 360 343 323 77 78 152 208 152 191 183 42 140 108 14 12 12 23 31 40 39 50 63 63 68 68 71 71 68
132 63 337 350 317 45 27 29 17 7 356 293 73 352 358 334 283 314 30 110 27 52 57 40 12 244 10 84 140 97 26 348 23 88 24 328 319 300 312 26 62 13 73 95 111 83 50 85 16 38 59 59 4 30 355 5 78 23 21 350 350 354 310 336 159 170 107 124 206 96 228 135 83 15 8 6 12 31 43 39 51 57 55 59 67 70 64 60
59 280 198 290 7 352 350 13 359 348 24 35 57 355 11 9 31 28 338 39 140 34 346 113 27 29 289 255 107 90 357 39 34 19 317 14 283 349 76 33 58 343 359 67 330 108 137 96 315 56 57 64 57 51 50 67 71 79 58 22 15 342 34 61 39 50 329 228 212 133 130 95 63 22 8 14 5 21 30 48 55 66 74 74 67 62 57 54
89 32 180 319 66 24 354 309 338 8 40 11 119 23 20 17 28 19 358 315 32 15 3 90 8 7 7 208 134 105 4 102 29 19 34 1 35 328 61 339 83 19 17 85 31 100 104 127 125 109 69 28 10 11 28 57 68 52 38 44 23 37 61 72 59 31 87 83 74 109 90 83 40 6 10 11 17 53 64 64 71 67 69 77 71 65 61 57
27 354 9 358 81 73 20 4 331 1 55 353 50 12 18 6 13 1 18 16 26 3 353 73 12 9 25 43 47 80 33 33 66 59 335 304 29 30 83 82 313 328 11 69 331 333 117 177 162 133 93 1 339 342 22 41 40 53 23 30 35 39 70 56 82 69 84 85 80 90 91 79 43 23 35 37 20 78 68 58 55 54 58 67 69 64 60 56
288 129 193 346 43 358 320 24 350 21 37 5 33 356 21 8 359 333 78 44 59 34 354 347 334 337 32 47 60 75 17 347 298 335 324 318 54 285 23 114 60 320 351 21 13 348 58 123 123 132 130 201 250 338 20 36 51 50 9 356 356 18 41 10 47 355 305 144 143 117 89 96 80 67 67 56 65 61 62 59 54 50 54 63 66 63 60 56
183 171 63 167 75 346 14 315 8 308 44 359 12 2 16 340 345 338 91 37 57 52 16 330 313 295 36 33 30 359 321 279 272 279 296 273 285 310 307 338 314 320 354 8 291 51 99 137 160 139 140 197 123 107 61 73 20 314 257 107 89 37 90 112 59 32 21 322 141 139 112 111 122 119 85 63 63 62 56 47 64 62 60 66 67 66 65 60